{"data":{"norad_id":67146,"intl_designator":"2025-301P","name":"KUIPER-00210","alt_names":[],"object_type":"PAYLOAD","status":"ACTIVE","operator":null,"country":"US","launch_date":"2025-12-16","launch_site_code":"AFETR","launch_vehicle":null,"mission":null,"orbit_class":"UNKNOWN","rcs_meters":null,"size_class":null,"mass_kg":null,"dimensions":null,"purposes":[],"wikipedia_slug":null,"has_3d_model":false,"image_url":null,"decayed_at":null,"tle_current":{"epoch":"2026-05-25T03:53:36.856032Z","epoch_age_seconds":54958,"freshness":"FRESH","line1":"1 67146U 25301P   26145.16223213  .00002953  00000+0  41608-3 0  9993","line2":"2 67146  51.8993  94.9395 0000837  75.3536 284.7519 14.79942268 25125","mean_motion":14.79942268,"eccentricity":8.37e-5,"inclination_deg":51.8993,"raan_deg":94.9395,"arg_perigee_deg":75.3536,"mean_anomaly_deg":284.7519,"bstar":0.00041608,"rev_number":2512,"period_min":97.301092828845,"perigee_km":628.91983279801,"apogee_km":630.09291229857,"semimajor_km":7007.6433725483,"source":"CELESTRAK","updated_at":"2026-05-25T13:38:06.751792Z"}}}